DG7FDL-13 Weather Reports


Display with metric or nautical units.
time (UTC)temp
F
wind
direction
speed
MPH
gust
MPH
rain 1hr
in
rain 24hr
in
rain mn
in
humidity
%
barometer
mb
20260504221003 59 0.0 0.0 0.00 0.00 0.00 74 1013.3
20260504215539 60 0.0 0.0 0.00 0.00 0.00 72 1013.3
20260504214319 59 0.0 0.0 0.00 0.00 0.00 74 1013.3
20260504213402 60 0.0 0.0 0.00 0.00 0.00 73 1013.3
20260504212331 60 0.0 0.0 0.00 0.00 0.00 73 1013.3
20260504211208 61 0.0 0.0 0.00 0.00 0.00 71 1013.3
20260504210231 60 0.0 0.0 0.00 0.00 0.00 71 1013.5
20260504205110 60 0.0 0.0 0.00 0.00 0.00 71 1013.5
20260504204006 61 0.0 0.0 0.00 0.00 0.00 70 1013.3
20260504203004 61 0.0 0.0 0.00 0.00 0.00 70 1013.5
20260504200806 61 0.0 0.0 0.00 0.00 0.00 69 1013.5
20260504195254 62 0.0 0.0 0.00 0.00 0.00 68 1013.3
20260504194231 63 0.0 0.0 0.00 0.00 0.00 67 1013.2
20260504193030 63 0.0 0.0 0.00 0.00 0.00 65 1013.2
20260504192116 63 0.0 0.0 0.00 0.00 0.00 66 1013.1
20260504190156 63 0.0 0.0 0.00 0.00 0.00 65 1013.1
20260504185030 64 0.0 0.0 0.00 0.00 0.00 65 1013.1
20260504184007 64 0.0 0.0 0.00 0.00 0.00 63 1013.0
20260504183030 64 0.0 0.0 0.00 0.00 0.00 63 1012.9
20260504181032 65 0.0 1.0 0.00 0.00 0.00 63 1012.6
20260504180740 65 0.0 1.0 0.00 0.00 0.00 61 1012.6
20260504174943 65 0 1.0 5.0 0.00 0.00 0.00 60 1012.7
20260504173002 67 0.0 2.0 0.00 0.00 0.00 58 1012.5
20260504171939 68 135 2.0 3.0 0.00 0.00 0.00 54 1012.4
20260504170943 69 0 3.0 6.0 0.00 0.00 0.00 51 1012.2
20260504140943 72 0 1.0 2.0 0.00 0.00 0.00 47 1012.4
20260504090116 65 45 1.0 2.0 0.00 0.00 0.00 56 1014.8
20260504080828 63 45 2.0 2.0 0.00 0.00 0.00 58 1014.9
20260504070230 60 0.0 2.0 0.00 0.00 0.00 60 1014.5
20260504044806 51 0.0 0.0 0.00 0.00 0.00 75 1014.2
20260504044054 51 0.0 1.0 0.00 0.00 0.00 74 1014.2
20260504042806 51 0.0 0.0 0.00 0.00 0.00 74 1014.2
20260504042020 51 0.0 0.0 0.00 0.00 0.00 78 1014.1
20260504040915 51 0.0 1.0 0.00 0.00 0.00 76 1014.2
20260504035344 52 0.0 0.0 0.00 0.00 0.00 73 1013.8
20260504033343 53 0.0 0.0 0.00 0.00 0.00 72 1013.9
20260504031342 52 0.0 0.0 0.00 0.00 0.00 74 1013.9
20260504025207 54 0.0 0.0 0.00 0.00 0.00 72 1013.8
20260504024143 54 0.0 0.0 0.00 0.00 0.00 70 1013.7
20260504023226 55 0.0 0.0 0.00 0.00 0.00 68 1013.7
20260504022006 55 0.0 0.0 0.00 0.00 0.00 68 1013.7
20260504021031 56 0.0 0.0 0.00 0.00 0.00 69 1013.7
20260504014230 59 0.0 0.0 0.00 0.00 0.00 60 1013.8
20260504013206 59 0.0 0.0 0.00 0.00 0.00 59 1013.9
20260504012230 59 0.0 0.0 0.00 0.00 0.00 59 1013.9
20260504010203 60 0 1.0 2.0 0.00 0.00 0.00 57 1013.7
20260504005118 60 0.0 2.0 0.00 0.00 0.00 57 1013.6
20260504004027 60 0 1.0 2.0 0.00 0.00 0.00 56 1013.6
20260504002943 60 0 2.0 2.0 0.00 0.00 0.00 57 1013.6
20260504001832 61 0.0 0.0 0.00 0.00 0.00 59 1013.6
20260503235118 61 0 1.0 2.0 0.00 0.00 0.00 58 1013.5
20260503232204 61 0.0 1.0 0.00 0.00 0.00 61 1013.6
20260503231031 62 0.0 0.0 0.00 0.00 0.00 57 1013.5
20260503230055 62 0.0 1.0 0.00 0.00 0.00 56 1013.3
20260503225031 62 0.0 1.0 0.00 0.00 0.00 57 1013.3
20260503223031 63 0.0 0.0 0.00 0.00 0.00 56 1013.3
20260503221918 63 0.0 0.0 0.00 0.00 0.00 55 1013.7